When you browse on this site, cookies collect data to enhance your experience and personalize the content and advertising you see.
Visit our Privacy Policy to learn more. By continuing to use the site, you agree to this use of cookies and data.
  • Em Portugal
  • Lista de países
  • Para 7 dias
  • Temperatura da água
  • Mapas de satélite
  • Mapa do tempo
  • Widgets de tempo
  • user-avatar
    Iniciar Sessão

    Previsão horária em Baranovichi

    Hoje, 26 Maio, Domingo

    Tempo Temperatura Precipitação Vento Pressão Humidade
    00:00 +11°C° 0 mm 3 m/s 742 mmHg 93%
    01:00 +10°C° 0 mm 3 m/s 742 mmHg 92%
    02:00 +9°C° 0 mm 3 m/s 742 mmHg 92%
    03:00 +9°C° 0 mm 3 m/s 742 mmHg 92%
    04:00 +8°C° 0 mm 2 m/s 742 mmHg 92%
    05:00 +8°C° 0 mm 2 m/s 742 mmHg 92%
    06:00 +9°C° 0 mm 3 m/s 742 mmHg 85%
    07:00 +11°C° 0 mm 3 m/s 742 mmHg 79%
    08:00 +12°C° 0 mm 3 m/s 743 mmHg 72%
    09:00 +13°C° 0 mm 4 m/s 743 mmHg 71%
    10:00 +13°C° 0 mm 4 m/s 743 mmHg 71%
    11:00 +14°C° 0 mm 4 m/s 743 mmHg 70%
    12:00 +14°C° 0 mm 4 m/s 743 mmHg 72%
    13:00 +14°C° 0 mm 4 m/s 742 mmHg 73%
    14:00 +14°C° 0 mm 4 m/s 742 mmHg 75%
    15:00 +14°C° 0 mm 4 m/s 742 mmHg 73%
    16:00 +15°C° 0 mm 4 m/s 742 mmHg 71%
    17:00 +15°C° 0 mm 5 m/s 742 mmHg 69%
    18:00 +14°C° 0 mm 4 m/s 742 mmHg 74%
    19:00 +12°C° 0 mm 3 m/s 742 mmHg 79%
    20:00 +12°C° 0 mm 2 m/s 742 mmHg 84%
    21:00 +10°C° 0 mm 2 m/s 742 mmHg 87%
    22:00 +10°C° 0 mm 2 m/s 742 mmHg 89%
    23:00 +9°C° 0 mm 2 m/s 742 mmHg 91%

    Amanhã, 27 Maio, Segunda-feira

    Tempo Temperatura Precipitação Vento Pressão Humidade
    00:00 +9°C° 0 mm 2 m/s 742 mmHg 91%
    01:00 +9°C° 0 mm 3 m/s 742 mmHg 92%
    02:00 +9°C° 0 mm 3 m/s 742 mmHg 92%
    03:00 +10°C° 0 mm 3 m/s 742 mmHg 92%
    04:00 +10°C° 0 mm 3 m/s 742 mmHg 92%
    05:00 +11°C° 0 mm 3 m/s 742 mmHg 91%
    06:00 +13°C° 0 mm 4 m/s 742 mmHg 86%
    07:00 +14°C° 0 mm 4 m/s 742 mmHg 80%
    08:00 +16°C° 0 mm 5 m/s 742 mmHg 75%
    09:00 +19°C° 0 mm 5 m/s 742 mmHg 70%
    10:00 +21°C° 0 mm 5 m/s 742 mmHg 65%
    11:00 +22°C° 0 mm 6 m/s 742 mmHg 60%
    12:00 +22°C° 0.3 mm 6 m/s 742 mmHg 62%
    13:00 +23°C° 0.3 mm 6 m/s 742 mmHg 64%
    14:00 +23°C° 0.3 mm 6 m/s 741 mmHg 65%
    15:00 +23°C° 0.3 mm 6 m/s 741 mmHg 67%
    16:00 +23°C° 0.3 mm 5 m/s 741 mmHg 69%
    17:00 +23°C° 0.3 mm 5 m/s 741 mmHg 72%
    18:00 +21°C° 0.5 mm 4 m/s 741 mmHg 77%
    19:00 +20°C° 0.5 mm 4 m/s 741 mmHg 83%
    20:00 +19°C° 0.5 mm 3 m/s 741 mmHg 89%
    21:00 +18°C° 0.8 mm 3 m/s 741 mmHg 91%
    22:00 +17°C° 0.8 mm 3 m/s 741 mmHg 93%
    23:00 +16°C° 0.8 mm 3 m/s 742 mmHg 95%

    Depois de amanhã, 28 Maio, Terça-feira

    Tempo Temperatura Precipitação Vento Pressão Humidade
    00:00 +16°C° 0.2 mm 2 m/s 742 mmHg 95%
    01:00 +16°C° 0.2 mm 2 m/s 742 mmHg 95%
    02:00 +15°C° 0.2 mm 2 m/s 742 mmHg 95%
    03:00 +16°C° 0 mm 2 m/s 741 mmHg 95%
    04:00 +16°C° 0 mm 2 m/s 741 mmHg 95%
    05:00 +16°C° 0 mm 2 m/s 741 mmHg 95%
    06:00 +17°C° 0.1 mm 3 m/s 741 mmHg 94%
    07:00 +17°C° 0.1 mm 4 m/s 740 mmHg 93%
    08:00 +18°C° 0.1 mm 4 m/s 740 mmHg 91%
    09:00 +18°C° 0.4 mm 4 m/s 740 mmHg 91%
    10:00 +19°C° 0.4 mm 4 m/s 740 mmHg 91%
    11:00 +19°C° 0.4 mm 3 m/s 739 mmHg 91%
    12:00 +21°C° 0.1 mm 4 m/s 739 mmHg 83%
    13:00 +23°C° 0.1 mm 5 m/s 739 mmHg 75%
    14:00 +26°C° 0.1 mm 6 m/s 739 mmHg 67%
    15:00 +26°C° 0.6 mm 5 m/s 739 mmHg 71%
    16:00 +25°C° 0.6 mm 5 m/s 739 mmHg 75%
    17:00 +25°C° 0.6 mm 4 m/s 739 mmHg 79%
    18:00 +22°C° 1.2 mm 4 m/s 739 mmHg 83%
    19:00 +21°C° 1.2 mm 3 m/s 739 mmHg 87%
    20:00 +19°C° 1.2 mm 3 m/s 739 mmHg 91%
    21:00 +19°C° 0 mm 3 m/s 739 mmHg 91%
    22:00 +18°C° 0 mm 3 m/s 738 mmHg 92%
    23:00 +17°C° 0 mm 4 m/s 738 mmHg 92%

    29 Maio, Quarta-feira

    Tempo Temperatura Precipitação Vento Pressão Humidade
    00:00 +17°C° 0.1 mm 4 m/s 738 mmHg 92%
    01:00 +17°C° 0.1 mm 4 m/s 738 mmHg 93%
    02:00 +16°C° 0.1 mm 5 m/s 738 mmHg 93%
    03:00 +16°C° 0.2 mm 5 m/s 738 mmHg 93%
    04:00 +15°C° 0.2 mm 4 m/s 738 mmHg 93%
    05:00 +15°C° 0.2 mm 4 m/s 738 mmHg 94%
    06:00 +17°C° 0.2 mm 4 m/s 738 mmHg 92%
    07:00 +18°C° 0.2 mm 4 m/s 738 mmHg 90%
    08:00 +18°C° 0.2 mm 4 m/s 739 mmHg 89%
    09:00 +19°C° 0 mm 4 m/s 739 mmHg 86%
    10:00 +20°C° 0 mm 4 m/s 739 mmHg 83%
    11:00 +21°C° 0 mm 4 m/s 739 mmHg 81%
    12:00 +22°C° 0.4 mm 5 m/s 740 mmHg 77%
    13:00 +23°C° 0.4 mm 5 m/s 740 mmHg 74%
    14:00 +25°C° 0.4 mm 5 m/s 740 mmHg 70%
    15:00 +23°C° 0.9 mm 4 m/s 740 mmHg 74%
    16:00 +23°C° 0.9 mm 4 m/s 740 mmHg 78%
    17:00 +22°C° 0.9 mm 3 m/s 740 mmHg 82%
    18:00 +21°C° 0.5 mm 3 m/s 741 mmHg 86%
    19:00 +20°C° 0.5 mm 2 m/s 741 mmHg 90%
    20:00 +19°C° 0.5 mm 2 m/s 741 mmHg 94%
    21:00 +18°C° 0 mm 2 m/s 741 mmHg 95%
    22:00 +17°C° 0 mm 2 m/s 741 mmHg 96%
    23:00 +16°C° 0 mm 3 m/s 742 mmHg 98%

    30 Maio, Quinta-feira

    Tempo Temperatura Precipitação Vento Pressão Humidade
    00:00 +14°C° 0.1 mm 3 m/s 742 mmHg 98%
    01:00 +15°C° 0.1 mm 2 m/s 742 mmHg 98%
    02:00 +15°C° 0.1 mm 2 m/s 742 mmHg 98%
    03:00 +15°C° 0 mm 2 m/s 742 mmHg 97%
    04:00 +15°C° 0 mm 2 m/s 742 mmHg 97%
    05:00 +15°C° 0 mm 2 m/s 742 mmHg 97%
    06:00 +14°C° 0.1 mm 3 m/s 742 mmHg 96%
    07:00 +16°C° 0.1 mm 3 m/s 743 mmHg 95%
    08:00 +16°C° 0.1 mm 3 m/s 743 mmHg 94%
    09:00 +14°C° 0.1 mm 4 m/s 743 mmHg 93%
    10:00 +13°C° 0.1 mm 4 m/s 743 mmHg 93%
    11:00 +12°C° 0.1 mm 5 m/s 744 mmHg 93%
    12:00 +12°C° 0.1 mm 5 m/s 744 mmHg 90%
    13:00 +12°C° 0.1 mm 5 m/s 744 mmHg 88%
    14:00 +10°C° 0.1 mm 5 m/s 745 mmHg 85%
    15:00 +12°C° 0 mm 5 m/s 745 mmHg 82%
    16:00 +13°C° 0 mm 5 m/s 745 mmHg 79%
    17:00 +13°C° 0 mm 5 m/s 745 mmHg 76%
    18:00 +12°C° 0 mm 5 m/s 746 mmHg 78%
    19:00 +12°C° 0 mm 4 m/s 746 mmHg 79%
    20:00 +11°C° 0 mm 3 m/s 747 mmHg 81%
    21:00 +10°C° 0 mm 3 m/s 747 mmHg 83%
    22:00 +9°C° 0 mm 3 m/s 747 mmHg 84%
    23:00 +8°C° 0 mm 3 m/s 748 mmHg 86%

    31 Maio, Sexta-feira

    Tempo Temperatura Precipitação Vento Pressão Humidade
    00:00 +8°C° 0 mm 2 m/s 748 mmHg 88%
    01:00 +7°C° 0 mm 2 m/s 748 mmHg 89%
    02:00 +6°C° 0 mm 2 m/s 749 mmHg 91%
    03:00 +7°C° 0 mm 2 m/s 749 mmHg 90%
    04:00 +7°C° 0 mm 2 m/s 749 mmHg 89%
    05:00 +7°C° 0 mm 2 m/s 750 mmHg 88%
    06:00 +8°C° 0 mm 2 m/s 750 mmHg 84%
    07:00 +10°C° 0 mm 2 m/s 750 mmHg 79%
    08:00 +12°C° 0 mm 3 m/s 751 mmHg 74%
    09:00 +14°C° 0 mm 3 m/s 751 mmHg 68%
    10:00 +16°C° 0 mm 3 m/s 751 mmHg 61%
    11:00 +17°C° 0 mm 3 m/s 751 mmHg 55%
    12:00 +17°C° 0 mm 3 m/s 751 mmHg 53%
    13:00 +18°C° 0 mm 4 m/s 751 mmHg 51%
    14:00 +18°C° 0 mm 4 m/s 751 mmHg 50%
    15:00 +18°C° 0 mm 4 m/s 751 mmHg 51%
    16:00 +18°C° 0 mm 3 m/s 751 mmHg 53%
    17:00 +18°C° 0 mm 3 m/s 751 mmHg 54%
    18:00 +16°C° 0 mm 2 m/s 752 mmHg 60%
    19:00 +15°C° 0 mm 2 m/s 752 mmHg 66%
    20:00 +13°C° 0 mm 1 m/s 752 mmHg 73%
    21:00 +12°C° 0 mm 1 m/s 752 mmHg 76%
    22:00 +11°C° 0 mm 1 m/s 753 mmHg 79%
    23:00 +10°C° 0 mm 1 m/s 753 mmHg 82%
    Mostrar mais